Terminal Aerodrome Forecast
Issued by NWS Mobile, AL

Home | Current Version | Previous Version | Text Only | Print | Product List | Glossary On
Versions: 1 2 3 4 5 6 7 8 9 10 11 12 13 14 15 16 17 18 19 20 21 22 23 24 25 26 27 28 29 30 31 32 33 34 35
000
FTUS44 KMOB 252300 RRA
TAFMOB
TAF
KMOB 252348Z 2600/2624 22011KT P6SM SKC
     FM260400 31010KT P6SM SCT025
     FM261300 32015G25KT P6SM SCT025=

USA.gov is the U.S. government's official web portal to all federal, state and local government web resources and services.